Weather History for Baker, MT

Change the Weather History Date:

Thursday, March 7, 2013

  Actual Average Record
Temperature  
Mean Temperature 26 °F -  
Max Temperature 35 °F 40 °F 62 °F (2007)
Min Temperature 17 °F 19 °F -11 °F (1998)
Degree Days  
Heating Degree Days 39    
Moisture  
Dew Point 20 °F    
Average Humidity 81    
Maximum Humidity 93    
Minimum Humidity 72    
Precipitation  
Precipitation 0.00 in - - ()
Sea Level Pressure  
Sea Level Pressure 30.02 in    
Wind  
Wind Speed 10 mph (SW)    
Max Wind Speed 18 mph    
Max Gust Speed 29 mph    
Visibility 8 miles    
Events Fog , Snow    
Averages and records for this station are not official NWS values.
T = Trace of Precipitation, MM = Missing Value Source: NWS Daily Summary

Daily Weather History Graph

Daily Weather History Graph

Search for Another Location

Airport:

Trip Planner

Search our weather history database for the weather conditions in past years. The results will help you decide how hot, cold, wet, or windy it might be!

Date:

Astronomy

Mar. 07, 2013 Rise Set
Actual Time 6:24 AM MST 5:52 PM MST
Civil Twilight 5:54 AM MST 6:22 PM MST
Nautical Twilight 5:19 AM MST 6:57 PM MST
Astronomical Twilight 4:44 AM MST 7:32 PM MST
Moon 3:38 AM MST (3/7) 1:31 PM MST (3/7)
Length of Visible Light 12h 27m
Length of Day
11h 27m
Waning Crescent, 19% of the Moon is Illuminated
Mar 7
Waning Crescent
Mar 11
New
Mar 19
First Quarter
Mar 27
Full
Apr 2
Last Quarter

Hourly Weather History & Observations

Time (MST) Temp. Windchill Dew Point Humidity Pressure Visibility Wind Dir Wind Speed Gust Speed Precip Events Conditions
12:51 AM 21.0 °F 6.2 °F 16.0 °F 81% 29.91 in 10.0 mi ESE 18.4 mph 28.8 mph N/A   Overcast
1:51 AM 21.0 °F 6.6 °F 17.1 °F 85% 29.91 in 10.0 mi ESE 17.3 mph - N/A   Overcast
2:51 AM 21.0 °F 7.6 °F 17.1 °F 85% 29.90 in 10.0 mi SE 15.0 mph - N/A   Overcast
3:51 AM 19.9 °F 7.3 °F 17.1 °F 89% 29.93 in 10.0 mi SE 12.7 mph - N/A   Overcast
4:18 AM 19.4 °F 6.6 °F 17.6 °F 93% 29.81 in 10.0 mi SE 12.7 mph - N/A   Overcast
4:51 AM 19.9 °F 8.6 °F 17.1 °F 89% 29.92 in 8.0 mi SE 10.4 mph - N/A   Overcast
5:35 AM 19.4 °F 10.4 °F 15.8 °F 86% 29.85 in 2.0 mi SSE 6.9 mph - N/A   Overcast
5:49 AM 19.4 °F 8.6 °F 15.8 °F 86% 29.85 in 1.2 mi SE 9.2 mph - N/A   Overcast
5:51 AM 19.9 °F 8.6 °F 16.0 °F 85% 29.96 in 1.2 mi SE 10.4 mph - N/A   Overcast
6:38 AM 19.4 °F 12.8 °F 15.8 °F 86% 29.87 in 0.5 mi SSE 4.6 mph - N/A Fog Light Freezing Fog
6:51 AM 18.0 °F 11.1 °F 14.0 °F 84% 29.99 in 0.8 mi South 4.6 mph - N/A   Mist
7:06 AM 17.6 °F - 12.2 °F 79% 29.89 in 1.2 mi Calm Calm - N/A   Haze
7:11 AM 17.6 °F - 14.0 °F 86% 29.89 in 3.0 mi Calm Calm - N/A   Mostly Cloudy
7:20 AM 17.6 °F - 12.2 °F 79% 29.90 in 9.0 mi Calm Calm - N/A   Scattered Clouds
7:51 AM 19.0 °F - 14.0 °F 81% 30.00 in 10.0 mi Calm Calm - N/A   Clear
8:51 AM 19.9 °F - 18.0 °F 92% 30.03 in 10.0 mi Calm Calm - N/A   Clear
9:51 AM 28.0 °F 18.1 °F 21.0 °F 75% 30.03 in 10.0 mi West 11.5 mph - N/A   Clear
10:51 AM 30.0 °F 20.0 °F 21.9 °F 72% 30.04 in 10.0 mi WNW 12.7 mph - 0.00 in   Clear
11:51 AM 32.0 °F 22.5 °F 24.1 °F 73% 30.06 in 9.0 mi WNW 12.7 mph - 0.00 in Snow Light Snow
12:11 PM 30.2 °F 19.8 °F 23.0 °F 75% 29.97 in 9.0 mi WNW 13.8 mph - 0.00 in Snow Light Snow
12:40 PM 32.0 °F 23.0 °F 24.8 °F 75% 29.98 in 9.0 mi NW 11.5 mph - 0.00 in Snow Light Snow
12:51 PM 32.0 °F 22.1 °F 25.0 °F 75% 30.07 in 10.0 mi WNW 13.8 mph - 0.00 in   Mostly Cloudy
1:27 PM 32.0 °F 21.2 °F 26.6 °F 80% 29.99 in 10.0 mi NW 16.1 mph - N/A   Overcast
1:51 PM 33.1 °F 23.4 °F 26.1 °F 75% 30.09 in 10.0 mi WNW 13.8 mph - N/A   Overcast
2:10 PM 33.8 °F 23.9 °F 26.6 °F 75% 30.00 in 10.0 mi NW 15.0 mph - N/A   Overcast
2:51 PM 33.1 °F 25.5 °F 27.0 °F 78% 30.11 in 10.0 mi WNW 9.2 mph - N/A   Overcast
3:51 PM 35.1 °F 28.6 °F 27.0 °F 72% 30.12 in 10.0 mi West 8.1 mph - N/A   Mostly Cloudy
4:09 PM 35.6 °F 29.2 °F 28.4 °F 75% 30.03 in 10.0 mi West 8.1 mph - N/A   Scattered Clouds
4:51 PM 35.1 °F 32.2 °F 27.0 °F 72% 30.14 in 10.0 mi West 3.5 mph - N/A   Clear
5:51 PM 32.0 °F 27.5 °F 26.1 °F 79% 30.15 in 10.0 mi NW 4.6 mph - N/A   Clear
6:51 PM 28.9 °F - 24.1 °F 82% 30.17 in 10.0 mi Calm Calm - N/A   Clear
7:51 PM 24.1 °F - 19.9 °F 84% 30.18 in 10.0 mi Calm Calm - N/A   Clear
8:51 PM 26.1 °F - 21.0 °F 81% 30.19 in 9.0 mi Calm Calm - N/A   Clear
9:45 PM 21.2 °F 14.9 °F 17.6 °F 86% 30.09 in 10.0 mi SSE 4.6 mph - N/A   Partly Cloudy
9:51 PM 23.0 °F - 18.0 °F 81% 30.19 in 9.0 mi Calm Calm - N/A   Partly Cloudy
10:51 PM 21.0 °F 12.4 °F 17.1 °F 85% 30.19 in 10.0 mi South 6.9 mph - N/A   Clear
11:51 PM 25.0 °F 20.7 °F 19.9 °F 81% 30.19 in 10.0 mi ESE 3.5 mph - N/A   Partly Cloudy